HXMT (HUIYAN)

Last updated on Wed Jul 02 2025 00:02:14 GMT+0000 (Coordinated Universal Time)

1 42758U 17034A 25182.55563116 .00004538 00000+0 25507-3 0 9992 2 42758 43.0157 328.9302 0033321 90.3153 270.1512 15.13972456444438
UTC large
Height (km)
Speed (km/s)
/
Latitude / Longitude
Inclination (degrees)
Orbital Period (minutes)
Azimuth
Elevation
Range (km)
Doppler Factor

Next 0 passes for location: London (51.5072 / 0.1276)

Sorry there are no passes over London.